Marysville, CA

5:21 AM PDT on August 25, 2019 (GMT -0700)
Yuba County

Weather History for KMYV - July, 2019

Change the Weather History Date:

Friday, July 19, 2019

  Actual Average Record
Temperature  
Mean Temperature 76 °F -  
Max Temperature 91 °F 96 °F 111 °F (1988)
Min Temperature 62 °F 62 °F 52 °F (1977)
Cooling Degree Days 12    
Growing Degree Days 26 (Base 50)    
Moisture  
Dew Point 56 °F    
Average Humidity 54    
Maximum Humidity 84    
Minimum Humidity 24    
Precipitation  
Precipitation 0.00 in - - ()
Sea Level Pressure  
Sea Level Pressure 29.84 in    
Wind  
Wind Speed 8 mph (South)    
Max Wind Speed 12 mph    
Max Gust Speed 21 mph    
Visibility 10 miles    
Events      
Averages and records for this station are not official NWS values.
T = Trace of Precipitation, MM = Missing Value Source: NWS Daily Summary

Daily Weather History Graph

Daily Weather History Graph

Search for Another Location

Airport or City:

Astronomy

Jul. 19, 2019 Rise Set
Actual Time 5:55 AM PDT 8:29 PM PDT
Civil Twilight 5:24 AM PDT 8:59 PM PDT
Nautical Twilight 4:46 AM PDT 9:38 PM PDT
Astronomical Twilight 4:03 AM PDT 10:21 PM PDT
Moon 10:30 PM PDT (7/19) 8:26 AM PDT (7/19)
Length of Visible Light 15h 35m
Length of Day
14h 33m
Waning Gibbous, 92% of the Moon is Illuminated
Jul 19
Waning Gibbous
Jul 24
Last Quarter
Jul 31
New
Aug 7
First Quarter
Aug 15
Full

Hourly Weather History & Observations

Time (PDT) Temp. Heat Index Dew Point Humidity Pressure Visibility Wind Dir Wind Speed Gust Speed Precip Events Conditions
12:53 AM 69.1 °F - 57.9 °F 68% 29.83 in 10.0 mi SSE 8.1 mph 20.7 mph N/A   Clear
1:53 AM 66.0 °F - 57.9 °F 75% 29.83 in 10.0 mi SSE 8.1 mph - N/A   Clear
2:53 AM 64.9 °F - 57.9 °F 78% 29.83 in 10.0 mi SSE 10.4 mph - N/A   Clear
3:53 AM 62.1 °F - 57.0 °F 84% 29.83 in 10.0 mi South 3.5 mph - N/A   Clear
4:53 AM 62.1 °F - 57.0 °F 84% 29.84 in 10.0 mi SSE 6.9 mph - N/A   Clear
5:53 AM 62.1 °F - 55.9 °F 80% 29.84 in 10.0 mi SE 11.5 mph - N/A   Clear
6:53 AM 63.0 °F - 55.9 °F 78% 29.86 in 10.0 mi South 4.6 mph - N/A   Clear
7:53 AM 66.0 °F - 55.9 °F 70% 29.87 in 10.0 mi SSE 6.9 mph - N/A   Clear
8:53 AM 69.1 °F - 57.0 °F 65% 29.88 in 10.0 mi South 3.5 mph - N/A   Clear
9:53 AM 73.0 °F - 57.0 °F 57% 29.88 in 10.0 mi SSE 6.9 mph - N/A   Clear
10:53 AM 79.0 °F - 57.0 °F 47% 29.88 in 10.0 mi SSW 5.8 mph - N/A   Clear
11:53 AM 82.0 °F 81.7 °F 57.0 °F 42% 29.88 in 10.0 mi SSE 5.8 mph - N/A   Clear
12:53 PM 86.0 °F 85.4 °F 59.0 °F 40% 29.86 in 10.0 mi SSW 6.9 mph - N/A   Clear
1:53 PM 88.0 °F 87.1 °F 59.0 °F 37% 29.85 in 10.0 mi SW 8.1 mph - N/A   Clear
2:53 PM 90.0 °F 88.6 °F 57.0 °F 33% 29.84 in 10.0 mi SW 8.1 mph - N/A   Clear
3:53 PM 90.0 °F 88.8 °F 57.9 °F 34% 29.82 in 10.0 mi WSW 9.2 mph - N/A   Clear
4:53 PM 91.9 °F 90.8 °F 57.9 °F 32% 29.81 in 10.0 mi SW 9.2 mph - N/A   Clear
5:53 PM 90.0 °F 88.1 °F 55.9 °F 31% 29.80 in 10.0 mi SW 11.5 mph - N/A   Clear
6:53 PM 89.1 °F - 48.0 °F 24% 29.79 in 10.0 mi South 9.2 mph - N/A   Clear
7:53 PM 82.9 °F - 51.1 °F 33% 29.79 in 10.0 mi South 10.4 mph - N/A   Clear
8:53 PM 77.0 °F - 48.0 °F 36% 29.80 in 10.0 mi South 9.2 mph - N/A   Clear
9:53 PM 73.9 °F - 55.0 °F 52% 29.82 in 10.0 mi SSE 9.2 mph - N/A   Clear
10:53 PM 70.0 °F - 55.9 °F 61% 29.83 in 10.0 mi SE 6.9 mph - N/A   Clear
11:53 PM 68.0 °F - 55.9 °F 65% 29.84 in 10.0 mi SSE 8.1 mph - N/A   Clear